Location: Carthage
(33.8834°N, 106.6595°W)
Time: 10:10:37
(UTC+00:00)

Cosmos 2333 Rocket - Pass Details

Date: 13 February 2026
Orbit: 840 x 862 km, 70.8° (Epoch: 11 March)

Event Time Altitude Azimuth Distance (km) Brightness Sun altitude
Rises 12:30:44 0° 172° (S) 3,422 5.5 -17.6°
Reaches altitude 10° 12:33:28 10° 161° (SSE) 2,489 4.9 -17.1°
Maximum altitude 12:38:20 30° 103° (ESE) 1,510 4.3 -16.1°
Drops below altitude 10° 12:43:13 10° 44° (NE) 2,495 5.2 -15.1°
Sets 12:45:57 0° 34° (NE) 3,433 5.8 -14.5°
